Location: Clanezzo
(45.7500°N, 9.6000°E)
Time: 02:35:14
(UTC+00:00)

BREEZE-M DEB (TANK) - Pass Details

Date: 12 May 2021
Orbit: 320 x 13078 km, 49.7° (Epoch: 17 June)

Event Time Altitude Azimuth Distance (km) Brightness Sun altitude
Rises 23:29:46 0° 298° (WNW) 7,798 9.0 -25.8°
Reaches altitude 10° 23:37:02 10° 295° (WNW) 4,969 7.9 -25.7°
Enters shadow 23:46:18 47° 245° (WSW) 1,189 4.2 -25.5°
